Skip Page Navigation
NASA JPL Caltech
NASA Logo - Jet Propulsion Laboratory + View the NASA Portal
+ Center for Near-Earth Object Studies
JPL Home Earth Solar System Stars & Galaxies Technology
JPL Solar System Dynamics
BODIES ORBITS EPHEMERIDES TOOLS PHYSICAL DATA DISCOVERY FAQ SITE MAP
JPL Small-Body Database Browser
Search: [ help ]  
389425 (2010 CZ11)
Classification: Main-belt Asteroid          SPK-ID: 2389425
Ephemeris | Orbit Diagram | Orbital Elements | Mission Design | Physical Parameters | Discovery Circumstances | Close-Approach Data ]

[ show orbit diagram ]
Orbital Elements at Epoch 2459000.5 (2020-May-31.0) TDB
Reference: JPL 14 (heliocentric ecliptic J2000)
 Element Value Uncertainty (1-sigma)   Units 
e .07253621638615032 8.3921e-08  
a 2.445988161229411 3.4758e-08 au
q 2.268565434688512 1.9885e-07 au
i 5.271853789968831 6.7563e-06 deg
node 252.5718209586001 9.354e-05 deg
peri 259.3488773921529 0.00010869 deg
M 240.7717185714147 6.4624e-05 deg
tp 2459463.260984303598
(2021-Sep-05.76098430)
0.00025695 TDB
period 1397.268771747589
3.83
2.9783e-05
8.154e-08
d
yr
n .2576454918903982 5.4917e-09 deg/d
Q 2.623410887770309 3.7279e-08 au
  Orbit Determination Parameters
   # obs. used (total)      96  
   data-arc span      5433 days (14.87 yr)  
   first obs. used      2005-12-27  
   last obs. used      2020-11-11  
   planetary ephem.      DE431  
   SB-pert. ephem.      SB431-N16  
   condition code      0  
   norm. resid. RMS      .72779  
   source      ORB  
   producer      Otto Matic  
   solution date      2020-Dec-18 06:50:47  

Additional Information
 Earth MOID = 1.28628 au 
 Jupiter MOID = 2.39223 au 
 T_jup = 3.489 
[ show covariance matrix ]

Ephemeris | Orbit Diagram | Orbital Elements | Mission Design | Physical Parameters | Discovery Circumstances | Close-Approach Data ]

Physical Parameter Table
Parameter Symbol Value Units Sigma Reference Notes
absolute magnitude H 17.5   n/a MPO446653  

389425 (2010 CZ11)          Discovered 2010-Feb-06 by Lowe, A. at Mayhill
Reference: Last Updated: 2014-03-21

[ show close-approach data ]
Alternate Designations
 2010 CZ11 = 2005 YP248 
Ephemeris | Orbit Diagram | Orbital Elements | Mission Design | Physical Parameters | Discovery Circumstances | Close-Approach Data ]
ABOUT SSD CREDITS/AWARDS PRIVACY/COPYRIGHT GLOSSARY LINKS
FirstGov 2021-Jan-26 00:51 UT
(server date/time)  
NASA Home Page
Site Manager:   Ryan S. Park
Webmaster  Alan B. Chamberlin